[[{"header":{"parameterUnit":"m.s-1","parameterCategory":1,"la1":30.2991,"la2":30.254,"lo1":-89.0895,"lo2":-89.0444,"dy":0.0017,"dx":0.0017,"nx":28,"ny":28,"refTime":"2025-12-01T09:00:00:Z","depth":0,"parameterNumber":2,"parameterNumberName":"U-component_of_WINDS"},"data":[0,0,0,0,0,0,0,0,0,0,0,0,0,0,0,0,0,0,0,0,0,0,0,0,0,0,0,0,0,0,0,0,0,0,0,0,0,0,0,0,0,0,0,0,0,0,0,0,0,0,0,0,0,0,0,0,0,0,-4.2872,-4.2873,0,-4.2939,-4.294,-4.294,-4.2826,-4.2822,-4.2818,-4.2814,-4.2886,-4.2891,-4.2896,0,0,0,0,0,0,0,0,0,0,0,0,0,-4.2649,-4.2654,-4.2872,-4.2873,-4.2874,-4.2939,-4.294,-4.2941,-4.2827,-4.2822,-4.2817,-4.2813,-4.2884,-4.289,-4.2897,0,0,0,0,0,0,0,0,0,0,0,0,0,-4.2734,-4.2656,-4.2872,-4.2825,-4.2821,-4.2939,-4.294,-4.2941,-4.2827,-4.2822,-4.2816,-4.281,-4.2882,-4.289,-4.2898,-4.3065,0,0,-4.2923,-4.2927,0,0,0,0,0,0,0,0,-4.273,-4.2743,-4.2831,-4.2828,-4.2824,-4.2868,-4.2887,-4.2983,-4.2829,-4.2825,-4.2814,-4.2808,-4.2885,-4.2892,-4.2918,-4.3069,-4.3072,-4.2924,-4.2929,-4.2932,-4.2935,0,0,0,0,0,0,0,-4.2724,-4.2739,-4.2899,-4.2832,-4.2828,-4.2801,-4.2807,-4.2905,-4.2887,-4.2825,-4.2817,-4.2826,-4.2882,-4.291,-4.2918,-4.3073,-4.2924,-4.2931,-4.2936,-4.2939,-4.3367,-4.3373,0,0,0,0,0,0,-4.2723,-4.2735,-4.2896,-4.2901,-4.2762,-4.281,-4.2816,-4.286,-4.2885,-4.2884,-4.2831,-4.2821,-4.2899,-4.2909,-4.2921,-4.312,-4.2932,-4.294,-4.2945,-4.336,-4.3368,-4.3375,0,0,0,0,0,0,-4.2719,-4.2739,-4.2894,-4.2816,-4.2833,-4.282,-4.287,-4.2864,-4.2892,-4.289,-4.2886,-4.2863,-4.2895,-4.2909,-4.303,-4.3121,-4.2944,-4.2951,-4.3353,-4.3363,-4.3372,-4.3519,0,0,0,0,0,0,-4.2713,-4.2738,-4.2801,-4.2818,-4.2838,-4.3002,-4.2875,-4.287,-4.2907,-4.2893,-4.2919,-4.2918,-4.2891,-4.3019,-4.3039,-4.3129,-4.2958,-4.3345,-4.3357,-4.3368,-4.3506,-4.3533,-4.3555,0,0,0,0,0,-4.2706,-4.284,-4.2805,-4.2825,-4.2916,-4.3007,-4.3019,-4.2985,-4.2914,-4.2978,-4.2977,-4.2917,-4.3107,-4.3032,-4.3054,-4.3148,-4.3339,-4.3354,-4.3368,-4.3495,-4.3527,-4.3555,0,0,0,0,0,0,-4.2835,-4.2841,-4.2802,-4.2946,-4.2977,-4.2988,-4.3067,-4.302,-4.3072,-4.3058,-4.3014,-4.3021,-4.3152,-4.3161,-4.3078,-4.3312,-4.3211,-4.3231,-4.3301,-4.3332,-4.3356,-4.3351,-4.2965,0,0,0,0,0,-4.288,-4.2952,-4.2955,-4.3081,-4.3099,-4.3081,-4.3119,-4.309,-4.3121,-4.3134,-4.3141,-4.3174,-4.3241,-4.3287,-4.3348,-4.3507,-4.3512,-4.3582,-4.3607,-4.3627,-4.3644,-4.3731,-4.3762,-4.3422,-4.3422,-4.3422,0,0,-4.2974,-4.2986,-4.3035,-4.3108,-4.3128,-4.3206,-4.3092,-4.3179,-4.3237,-4.3147,-4.3262,-4.3269,-4.3303,-4.3445,-4.3507,-4.3457,-4.3739,-4.3645,-4.3661,-4.3668,-4.3749,-4.3781,-4.381,-4.3432,-4.343,-4.3429,0,0,-4.3185,-4.3201,-4.3309,-4.3332,-4.3365,-4.3352,-4.3378,-4.3397,-4.3398,-4.3512,-4.3447,-4.3516,-4.3632,-4.366,-4.3689,-4.3912,-4.386,-4.3933,-4.4062,-4.4146,-4.4173,-4.4197,-4.4278,-4.4308,-4.3951,-4.3951,-4.3951,0,-4.3298,-4.3411,-4.3371,-4.3463,-4.3497,-4.3419,-4.3529,-4.3553,-4.3605,-4.3631,-4.3574,-4.3719,-4.3736,-4.3884,-4.3938,-4.3964,-4.3994,-4.3931,-4.4172,-4.4196,-4.4217,-4.4294,-4.4325,-4.396,-4.3959,-4.3958,-4.3957,0,-4.355,-4.363,-4.3713,-4.3765,-4.3808,-4.3909,-4.3885,-4.3934,-4.3902,-4.3895,-4.4015,-4.4032,-4.4097,-4.413,-4.4099,-4.4274,-4.4242,-4.4179,-4.4077,-4.4259,-4.4331,-4.436,-4.3973,-4.3969,-4.3967,-4.3965,0,0,-4.3844,-4.3872,-4.3904,-4.3927,-4.3958,-4.4019,-4.4117,-4.4179,-4.4223,-4.4262,-4.4344,-4.4444,-4.4387,-4.4421,-4.4392,-4.4466,-4.4644,-4.4395,-4.4395,-4.4442,-4.484,-4.4888,-4.4923,-4.4609,-4.4615,-4.4619,-4.4838,0,-4.4056,-4.4223,-4.419,-4.4354,-4.4428,-4.4356,-4.4441,-4.447,-4.4467,-4.453,-4.4527,-4.46,-4.4518,-4.4538,-4.4608,-4.4608,-4.4724,-4.4591,-4.4687,-4.4691,-4.4682,-4.496,-4.501,-4.5216,-4.4865,-4.487,-4.4873,0,-4.4324,-4.4373,-4.4545,-4.4565,-4.4594,-4.4672,-4.4727,-4.4788,-4.482,-4.4813,-4.4851,-4.4809,-4.4907,-4.4803,-4.494,-4.4851,-4.4887,-4.4894,-4.4901,-4.491,-4.4794,-4.4978,-4.5281,-4.5312,-4.4917,-4.4913,-4.491,0,-4.4524,-4.4632,-4.4749,-4.4771,-4.4797,-4.4853,-4.4867,-4.4892,-4.4933,-4.4982,-4.5008,-4.5068,-4.5101,-4.5149,-4.5125,-4.5052,-4.5267,-4.516,-4.5265,-4.5266,-4.5315,-4.5312,-4.563,-4.5337,-4.5336,-4.5336,-4.5335,0,-4.4765,-4.4873,-4.484,-4.4912,-4.5032,-4.4993,-4.5113,-4.5118,-4.5142,-4.5215,-4.5155,-4.5226,-4.5189,-4.5257,-4.5238,-4.5355,-4.537,-4.5368,-4.5363,-4.5375,-4.5375,-4.54,-4.5385,-4.5344,-4.5342,-4.534,-4.5339,0,-4.5008,-4.499,-4.5113,-4.5128,-4.5134,-4.5222,-4.5235,-4.5303,-4.5295,-4.5389,-4.5408,-4.5397,-4.5474,-4.5455,-4.5538,-4.5526,-4.5674,-4.5649,-4.5664,-4.5658,-4.5765,-4.5756,-4.611,-4.6155,-4.5831,-4.5835,-4.5837,0,-4.5163,-4.5245,-4.5269,-4.5313,-4.5331,-4.5403,-4.5444,-4.5409,-4.5454,-4.5498,-4.5561,-4.5633,-4.5688,-4.5814,-4.5815,-4.5879,-4.5857,-4.5976,-4.5866,-4.5876,-4.5861,-4.5857,-4.5865,-4.5999,-4.6002,-4.6005,-4.6008,0,-4.5441,-4.5429,-4.5489,-4.5548,-4.5598,-4.5642,-4.5681,-4.5721,-4.569,-4.5744,-4.5822,-4.5865,-4.595,-4.6023,-4.6082,-4.6097,-4.6049,-4.6042,-4.607,-4.6084,-4.609,-4.609,-4.5725,-4.6035,-4.6032,-4.603,-4.6029,-4.6028,-4.5647,-4.5716,-4.5744,-4.5814,-4.584,-4.5878,-4.5943,-4.5944,-4.6008,-4.6074,-4.605,-4.614,-4.6171,-4.6245,-4.6268,-4.6339,-4.6293,-4.6333,-4.6344,-4.6355,-4.6369,-4.6078,-4.6349,-4.6348,-4.6347,-4.6347,-4.6346,0,-4.5923,-4.5937,-4.6002,-4.6058,-4.6114,-4.6062,-4.6103,-4.6154,-4.6233,-4.6265,-4.6321,-4.6411,-4.6482,-4.6488,-4.6554,-4.661,-4.6589,-4.6628,-4.6625,-4.663,-4.6405,-4.6374,-4.6644,-4.6644,-4.6644,-4.6644,-4.6644,-4.6644,-4.6073,-4.6189,-4.618,-4.6309,-4.6322,-4.6409,-4.6437,-4.6473,-4.6499,-4.6602,-4.666,-4.6663,-4.6686,-4.6753,-4.6816,-4.6816,-4.6844,-4.6893,-4.6885,-4.6675,-4.6645,-4.6617,-4.6588,-4.6899,-4.6899,-4.7104,-4.7106,-4.7107]},{"header":{"parameterUnit":"m.s-1","parameterCategory":1,"la1":30.2991,"la2":30.254,"lo1":-89.0895,"lo2":-89.0444,"dy":0.0017,"dx":0.0017,"nx":28,"ny":28,"refTime":"2025-12-01T09:00:00:Z","depth":0,"parameterNumber":3,"parameterNumberName":"V-component_of_WINDS"},"data":[0,0,0,0,0,0,0,0,0,0,0,0,0,0,0,0,0,0,0,0,0,0,0,0,0,0,0,0,0,0,0,0,0,0,0,0,0,0,0,0,0,0,0,0,0,0,0,0,0,0,0,0,0,0,0,0,0,0,-1.6266,-1.6266,0,-1.6234,-1.6233,-1.6233,-1.617,-1.6168,-1.6167,-1.6166,-1.6134,-1.6134,-1.6135,0,0,0,0,0,0,0,0,0,0,0,0,0,-1.6274,-1.6275,-1.6266,-1.6266,-1.6266,-1.6234,-1.6233,-1.6233,-1.617,-1.6168,-1.6167,-1.6165,-1.6134,-1.6134,-1.6135,0,0,0,0,0,0,0,0,0,0,0,0,0,-1.6259,-1.6275,-1.6266,-1.623,-1.6227,-1.6234,-1.6233,-1.6233,-1.617,-1.6168,-1.6166,-1.6165,-1.6134,-1.6134,-1.6135,-1.6175,0,0,-1.6136,-1.6137,0,0,0,0,0,0,0,0,-1.626,-1.6259,-1.6236,-1.6233,-1.6229,-1.6204,-1.6224,-1.6214,-1.6171,-1.6192,-1.6166,-1.6164,-1.6159,-1.6157,-1.6155,-1.6174,-1.6172,-1.6136,-1.6137,-1.6137,-1.6137,0,0,0,0,0,0,0,-1.6261,-1.626,-1.6253,-1.6236,-1.6231,-1.6216,-1.6211,-1.6222,-1.6186,-1.619,-1.6185,-1.6182,-1.6157,-1.6155,-1.6154,-1.6172,-1.6136,-1.6137,-1.6137,-1.6137,-1.6221,-1.6223,0,0,0,0,0,0,-1.6268,-1.6261,-1.6254,-1.6252,-1.624,-1.6217,-1.6212,-1.6214,-1.6186,-1.618,-1.6183,-1.6179,-1.6155,-1.6154,-1.6153,-1.6198,-1.6137,-1.6137,-1.6138,-1.6219,-1.6222,-1.6224,0,0,0,0,0,0,-1.6268,-1.6268,-1.6256,-1.6256,-1.6253,-1.6219,-1.6221,-1.6214,-1.6212,-1.6181,-1.6175,-1.6188,-1.6154,-1.6152,-1.617,-1.6196,-1.6137,-1.6138,-1.6217,-1.622,-1.6223,-1.6289,0,0,0,0,0,0,-1.6269,-1.6268,-1.6283,-1.6256,-1.6253,-1.6274,-1.6222,-1.6215,-1.6213,-1.6207,-1.6184,-1.6179,-1.6152,-1.6169,-1.617,-1.6196,-1.6138,-1.6215,-1.6218,-1.6222,-1.6285,-1.6294,-1.6302,0,0,0,0,0,-1.6269,-1.6304,-1.6284,-1.6284,-1.6271,-1.6275,-1.6273,-1.6242,-1.6215,-1.623,-1.621,-1.6179,-1.6193,-1.6172,-1.6172,-1.6198,-1.6213,-1.6217,-1.6221,-1.6281,-1.6292,-1.6302,0,0,0,0,0,0,-1.6335,-1.63,-1.6278,-1.6305,-1.6293,-1.6265,-1.6282,-1.6255,-1.6251,-1.6246,-1.6207,-1.6202,-1.6225,-1.6213,-1.6191,-1.6235,-1.6198,-1.6202,-1.6243,-1.6253,-1.6262,-1.6265,-1.6139,0,0,0,0,0,-1.6353,-1.6359,-1.6327,-1.6354,-1.635,-1.6317,-1.6318,-1.6294,-1.6281,-1.6276,-1.6257,-1.6246,-1.6247,-1.625,-1.6249,-1.6282,-1.6276,-1.63,-1.6309,-1.6316,-1.6321,-1.6337,-1.6347,-1.6238,-1.6238,-1.6238,0,0,-1.639,-1.6371,-1.6377,-1.6367,-1.6356,-1.6363,-1.6314,-1.6324,-1.6328,-1.6278,-1.6293,-1.6279,-1.6264,-1.6289,-1.6299,-1.628,-1.6349,-1.6322,-1.6328,-1.6329,-1.6343,-1.6353,-1.6362,-1.6241,-1.6241,-1.624,0,0,-1.6461,-1.6447,-1.6468,-1.6457,-1.6439,-1.6417,-1.6422,-1.6397,-1.6386,-1.64,-1.6362,-1.6367,-1.6371,-1.6362,-1.6357,-1.6423,-1.6395,-1.6424,-1.6471,-1.6487,-1.6495,-1.6503,-1.6526,-1.6535,-1.6429,-1.6429,-1.6429,0,-1.6509,-1.6518,-1.6482,-1.6494,-1.6491,-1.6444,-1.6464,-1.6455,-1.6439,-1.6438,-1.6416,-1.6419,-1.6406,-1.6428,-1.6444,-1.6442,-1.6446,-1.6427,-1.6497,-1.6504,-1.651,-1.6533,-1.6542,-1.6433,-1.6432,-1.6432,-1.6432,0,-1.6578,-1.6585,-1.6604,-1.6588,-1.6587,-1.6603,-1.657,-1.6572,-1.6548,-1.6529,-1.6544,-1.6526,-1.6521,-1.6524,-1.6501,-1.6543,-1.6532,-1.6504,-1.6465,-1.6525,-1.6545,-1.6554,-1.6438,-1.6437,-1.6436,-1.6435,0,0,-1.6692,-1.6655,-1.6663,-1.6655,-1.6631,-1.6636,-1.665,-1.6644,-1.6647,-1.6637,-1.6648,-1.6652,-1.6625,-1.6621,-1.6596,-1.661,-1.6663,-1.658,-1.6579,-1.6597,-1.6708,-1.673,-1.674,-1.6644,-1.6645,-1.6646,-1.671,0,-1.6758,-1.6779,-1.6747,-1.6776,-1.6781,-1.6736,-1.6748,-1.6735,-1.6717,-1.6719,-1.6698,-1.6701,-1.6666,-1.6663,-1.6675,-1.6654,-1.6685,-1.6649,-1.6654,-1.6655,-1.666,-1.6751,-1.6774,-1.6835,-1.6717,-1.6719,-1.672,0,-1.6839,-1.6832,-1.6861,-1.6835,-1.6836,-1.6848,-1.6839,-1.6842,-1.6826,-1.6811,-1.6805,-1.6776,-1.6787,-1.6749,-1.6765,-1.6741,-1.6741,-1.6731,-1.6733,-1.6733,-1.6692,-1.6754,-1.6854,-1.6863,-1.6732,-1.6731,-1.673,0,-1.6919,-1.6917,-1.6934,-1.6928,-1.6898,-1.6908,-1.6896,-1.6878,-1.6876,-1.6869,-1.6867,-1.6862,-1.6859,-1.6856,-1.6825,-1.68,-1.6845,-1.6804,-1.6834,-1.6834,-1.6846,-1.6846,-1.6948,-1.6845,-1.6844,-1.6844,-1.6844,0,-1.6997,-1.7017,-1.6969,-1.698,-1.7001,-1.6963,-1.6984,-1.6968,-1.6952,-1.6959,-1.6919,-1.6926,-1.6885,-1.6888,-1.6864,-1.6881,-1.688,-1.6869,-1.6863,-1.6873,-1.6875,-1.6873,-1.6869,-1.6847,-1.6846,-1.6846,-1.6845,0,-1.7091,-1.706,-1.7075,-1.7045,-1.7038,-1.7055,-1.7029,-1.7037,-1.7016,-1.7025,-1.7025,-1.6991,-1.6992,-1.6961,-1.6956,-1.694,-1.6967,-1.6953,-1.6973,-1.6968,-1.7,-1.6998,-1.7105,-1.7117,-1.7006,-1.7007,-1.7008,0,-1.7143,-1.7157,-1.7128,-1.7129,-1.7119,-1.7122,-1.7119,-1.7082,-1.7081,-1.7064,-1.7075,-1.7072,-1.7068,-1.7072,-1.7048,-1.7044,-1.7029,-1.7067,-1.7028,-1.7038,-1.703,-1.703,-1.7032,-1.7076,-1.7077,-1.7078,-1.7079,0,-1.7239,-1.7223,-1.7221,-1.7214,-1.7212,-1.7204,-1.7194,-1.7198,-1.7157,-1.7158,-1.7158,-1.7155,-1.7149,-1.7148,-1.7139,-1.7126,-1.7097,-1.7091,-1.7098,-1.7109,-1.712,-1.7115,-1.6996,-1.7089,-1.7088,-1.7088,-1.7087,-1.7087,-1.7314,-1.7325,-1.7305,-1.7304,-1.7292,-1.7284,-1.729,-1.7269,-1.7268,-1.726,-1.7238,-1.7242,-1.7225,-1.7209,-1.7199,-1.7202,-1.7183,-1.7193,-1.7196,-1.7199,-1.7205,-1.7119,-1.72,-1.72,-1.72,-1.7199,-1.7199,0,-1.7409,-1.7394,-1.7393,-1.738,-1.7379,-1.7349,-1.7336,-1.7338,-1.7342,-1.7328,-1.7324,-1.7325,-1.7322,-1.7297,-1.7292,-1.7299,-1.7285,-1.7299,-1.7298,-1.7296,-1.7222,-1.7217,-1.731,-1.731,-1.731,-1.731,-1.731,-1.731,-1.7458,-1.7474,-1.7455,-1.7464,-1.7449,-1.7452,-1.7447,-1.7439,-1.7427,-1.7429,-1.7427,-1.741,-1.7391,-1.7384,-1.7381,-1.7373,-1.7374,-1.7393,-1.7381,-1.7312,-1.7301,-1.7291,-1.7286,-1.7393,-1.7393,-1.7455,-1.7455,-1.7456]}]]